Flag for Canada Weather past 2 weeks in Rouyn-Noranda, Quebec, Canada

Now
57 °F

Sprinkles. Overcast.


Feels Like: 57 °F
Forecast: 55 / 67 °F
Wind: 2 mph from North

Location: Rouyn Airport

Current Time: Jul 26, 2014 at 5:23:40 AM

Latest Report: Jul 26, 2014 at 5:00 AM


Visibility: 15 mi

Pressure: 29.76 "Hg

Humidity: 100%

Dew point: 57 °F

Location of Rouyn-NorandaLocation

Historic Weather in Rouyn-Noranda — Graph

°F

Rouyn-Noranda temperature yesterday

Maximum temperature yesterday: 77 °F (at 3:00 PM)
Minimum temperature yesterday: 57 °F (at 3:00 AM)
Average temperature yesterday: 66 °F

Past Weeks' High & Low Weather Summary

 TemperatureHumidityPressure
High79 °F (Jul 18, 5:00 PM)100% (Jul 13, 5:00 AM)30.20 "Hg (Jul 13, 5:00 AM)
Low43 °F (Jul 24, 12:00 AM)39% (Jul 19, 2:00 PM)29.55 "Hg (Jul 13, 3:00 PM)
Average63 °F75%29.93 "Hg
* Reported Jul 11 4:00 AM — Jul 26 4:00 AM, Rouyn-Noranda, Weather by CustomWeather, © 2014

Note: Actual official high and low records may vary slightly from our data, if they occured in-between our weather recording intervals... More about our weather records

Advertising

Rouyn-Noranda weather history for July 13, 2014

 ConditionsComfort  
Time TempWeatherWind HumidityBarometerVisibility
12:00 AM
Jul 13
64 °FPassing clouds.5 mph78%29.86 "Hg15 mi
1:00 AM63 °FOvercast.3 mph83%29.85 "Hg15 mi
2:00 AM63 °FOvercast.7 mph83%29.82 "Hg15 mi
3:00 AM63 °FOvercast.5 mph83%29.78 "Hg15 mi
4:00 AM63 °FOvercast.12 mph88%29.77 "Hg15 mi
5:00 AM61 °FScattered showers. Overcast.7 mph100%29.75 "Hg15 mi
5:51 AM61 °FSprinkles. Fog.6 mph100%29.72 "Hg6 mi
6:00 AM61 °FSprinkles. Fog.5 mph100%29.72 "Hg6 mi
7:00 AM63 °FSprinkles. Fog.3 mph94%29.69 "Hg2 mi
8:00 AM63 °FSprinkles. Fog.3 mph94%29.68 "Hg2 mi
9:00 AM63 °FLight rain. Fog.2 mph94%29.66 "Hg3 mi
9:52 AM64 °FScattered clouds.3 mph94%29.62 "Hg15 mi
10:00 AM64 °FScattered clouds.2 mph94%29.61 "Hg15 mi
11:00 AM68 °FScattered clouds.6 mph83%29.59 "Hg15 mi
12:00 PM72 °FPartly sunny.9 mph73%29.59 "Hg15 mi
1:00 PM75 °FScattered clouds.16 mph57%29.59 "Hg15 mi
2:00 PM75 °FBroken clouds.12 mph61%29.57 "Hg15 mi
3:00 PM75 °FScattered clouds.9 mph61%29.55 "Hg15 mi
4:00 PM61 °FThunderstorms. More clouds than sun.9 mph88%29.61 "Hg3 mi
5:00 PM64 °FPartly sunny.8 mph78%29.59 "Hg15 mi
6:00 PM64 °FBroken clouds.7 mph78%29.61 "Hg15 mi
7:00 PM64 °FPartly sunny.7 mph78%29.62 "Hg15 mi
8:00 PM64 °FScattered clouds.10 mph78%29.64 "Hg15 mi
9:00 PM61 °FScattered clouds.8 mph83%29.67 "Hg15 mi
10:03 PM59 °FSprinkles. Partly sunny.20 mph72%29.70 "Hg15 mi
11:00 PM57 °FPassing clouds.12 mph77%29.71 "Hg15 mi
Weather by CustomWeather, © 2014

See weather overviewHow to use our weather pages